Find Starlink 33707

NORAD ID: 63401 Int'l Des: 2025-065 Owner: SPXS Country: US Constellation: starlink operational
LEOCIRCULAR

リアルタイム位置

3D地球を読み込み中...

Starlink 33707について

説明を読み込み中...

次回通過

Passes for default location (London). Set your location on the main map for personalized predictions.

高度履歴

Loading altitude history...

軌道要素

1 63401U 25065C 26123.43236668 .00021278 00000-0 78007-3 0 9999
2 63401 42.9996 157.7926 0001667 265.4573 94.6089 15.27599083 61219
Epoch: May 3, 2026 • Age: 16 hours

現在のステータス

高度 483.7 km
速度 7.63 km/s
衛星直下点 26.38°N, 39.86°E
打ち上げ日 Mar 31, 2025
運用期間 1 years
タイプ internet

技術仕様

分類 Payload
質量 575.00 kg
乾燥質量 530.00 kg
総質量 575.00 kg
長さ 0.30 m
直径 4.10 m
スパン 29.00 m
形状 Box + pan
製造者 SPXS
バスタイプ Starlink V2MO
フェーズステータス In Orbit
所有者/国 SPXS/US

Most Searched